Location: Amherst
(42.5000°N, 72.5000°W)
Time: 06:18:23
(UTC-04:00)

ISS - Pass Details

Date: 21 May 2018
Orbit: 402 x 407 km, 51.6° (Epoch: 24 May)

Event Time Altitude Azimuth Distance (km) Brightness Sun altitude
Rises 20:49:53 0° 207° (SSW) 2,306 -0.1 -6.8°
Reaches altitude 10° 20:52:09 10° 194° (SSW) 1,450 -1.2 -7.2°
Maximum altitude 20:54:54 25° 136° (SE) 847 -2.8 -7.6°
Drops below altitude 10° 20:57:40 10° 78° (ENE) 1,456 -1.4 -8.0°
Sets 20:59:57 0° 65° (ENE) 2,318 -0.3 -8.3°
